Torna al catalogo

DMSP 5D-2 F13 DEB

AttivoPO
NORAD 42262·DEBRIS·🇺🇸 United States

Lanciato Mar 24, 1995 da Vandenberg Space Force Base

Loading…

Prossimi Passaggi (prossime 24 ore)

TLE

AggiornatoSource: Space-Track

Epoca: Sep 14, 2026, 10:32 UTC

1 42262U 95015GC  26257.43896332  .00010717  00000-0  15374-2 0  9994
2 42262  98.5102 332.7365 0024502 102.6420 257.7530 14.76493583599541

Traccia DMSP 5D-2 F13 DEB in tempo reale con AllMySat

Download on the App Store